Tracking 17559 objects as of 14-February-2016
HD Live streaming from Space Station
objects crossing your sky now

THORAD AGENA D DEB

Track THORAD AGENA D DEB now!
10-day predictions


NORAD ID: 4768
Int'l Code: 1970-025DN
Perigee: 985.6 km
Apogee: 1,031.2 km
Inclination: 100.2 °
Period: 105.1 minutes
Semi major axis: 7379 km
RCS: 0.064 m2 (small)
Launch date: April 8, 1970
Source: United States (US)
Launch site: AIR FORCE WESTERN TEST RANGE (AFWTR)

Note: This is SATELLITE DEBRIS
Your satellite tracking list
Your tracking list is empty





NASA's NSSDC Master Catalog

Two Line Element Set (TLE):
1 04768U 70025DN  16044.37209353  .00000104  00000-0  17568-3 0  9991
2 04768 100.1536 186.6158 0030901 209.0395 176.7333 13.6952338281167
Source of the keplerian elements: AFSPC

N2YO: 378